User: anonymous   Login
Location: PFO Observatory
(45.2937°N, 66.0991°W)
Time: 02:26:24
(UTC-03:00)
Language:

Cosmos 1151 Rocket - Orbit

View from above orbital plane
View from above orbital plane
View from above satellite
View from above satellite

Ground track
Ground track

The orbit data is extracted from the following two-line orbital elements,

1 11672U 80005B   17083.77830971 +.00000116 +00000-0 +99294-5 0  9997
2 11672 082.5172 159.0522 0015488 234.1524 125.8255 14.87853088989720
Epoch (UTC): 24 March 2017 18:40:45
Eccentricity: 0.0015488
inclination: 82.5172°
perigee height: 594 km
apogee height: 615 km
right ascension of ascending node: 159.0522°
argument of perigee: 234.1524°
revolutions per day: 14.87853088
mean anomaly at epoch: 125.8255°
orbit number at epoch: 98972

The dashed part of the orbit path shows where the satellite is in the earth's shadow,  

DLR